Regional Weather Roundup
Issued by NWS

Home | Current Version | Previous Version | Text Only | Print | Product List | Glossary On
Versions: 1 2 3 4 5 6 7 8 9 10 11 12 13 14 15 16 17 18 19 20 21 22 23 24 25 26 27 28 29 30 31 32 33 34 35 36 37 38 39 40 41 42 43 44 45 46 47 48 49 50
689
ASUS44 KFWD 271215
RWRTX
NORTH TEXAS HOURLY WEATHER ROUNDUP
NATIONAL WEATHER SERVICE FORT WORTH TX
700 AM CDT TUE SEP 27 2016

NOTE: "FAIR" INDICATES FEW OR NO CLOUDS BELOW 12,000 FEET WITH NO
SIGNIFICANT WEATHER AND/OR OBSTRUCTIONS TO VISIBILITY.

TXZ118-119-271300-
DALLAS/FORT WORTH METROPLEX

CITY           SKY/WX    TMP DP  RH WIND       PRES   REMARKS
DFW AIRPORT    MOCLDY    65  56  72 N7        30.11R
6HR MIN TEMP:  65; 6HR MAX TEMP:  69;

DALLAS LOVE    MOCLDY    68  55  63 N6        30.11S
6HR MIN TEMP:  68; 6HR MAX TEMP:  68;

FTW MEACHAM    CLOUDY    62  51  67 NW6       30.12R
6HR MIN TEMP:  62; 6HR MAX TEMP:  68;

DAL-EXECUTIVE  CLOUDY    66  59  78 N3        30.10S
6HR MIN TEMP:  66; 6HR MAX TEMP:  67;

FTW-ALLIANCE   CLOUDY    59  51  75 NW3       30.12R
6HR MIN TEMP:  59; 6HR MAX TEMP:  66;

FTW-NAS-JRB    CLOUDY    63  55  75 NW6       30.13S
6HR MIN TEMP:  63; 6HR MAX TEMP:  69;

FTW-SPINKS     MOCLDY    64  55  72 N5        30.13S
ARLINGTON      CLOUDY    68  56  65 NW6       30.11S
6HR MIN TEMP:  67; 6HR MAX TEMP:  68;

GRAND PRAIRIE  CLOUDY    66  55  68 N6        30.12F
ADDISON        CLOUDY    64  52  63 N5        30.12F
MESQUITE       CLOUDY    64  61  88 CALM      30.10F
LANCASTER      CLOUDY    67  59  77 CALM      30.11S
6HR MIN TEMP:  67; 6HR MAX TEMP:  68;

$$

TXZ091>094-102>105-117-120-121-131>134-271300-
NORTH CENTRAL TEXAS

CITY           SKY/WX    TMP DP  RH WIND       PRES   REMARKS
SHRMAN/DENISON PTCLDY    55  55  97 CALM      30.14S
6HR MIN TEMP:  55; 6HR MAX TEMP:  62;

GAINESVILLE      N/A     52  47  82 CALM      30.16R
6HR MIN TEMP:  52; 6HR MAX TEMP:  59;

BOWIE          MOCLDY    55  51  86 NW6       30.15S
6HR MIN TEMP:  54; 6HR MAX TEMP:  62;

BRIDGEPORT     CLOUDY    59  56  88 CALM      30.17R
6HR MIN TEMP:  55; 6HR MAX TEMP:  61;

DECATUR        CLOUDY    57  46  66 CALM      30.14S
6HR MIN TEMP:  57; 6HR MAX TEMP:  62; 6HR PCP:  0.01;

DENTON         MOCLDY    57  51  80 N6        30.13R
6HR MIN TEMP:  57; 6HR MAX TEMP:  64;

MCKINNEY       PTCLDY    59  54  83 N5        30.12S
6HR MIN TEMP:  58; 6HR MAX TEMP:  65;

GREENVILLE     CLOUDY    63  54  72 N3        30.11S
ROCKWALL       CLOUDY    64  55  73 NW7       30.10F
6HR MIN TEMP:  64; 6HR MAX TEMP:  66;

TERRELL        CLOUDY    66  58  75 N7        30.10F
6HR MIN TEMP:  66; 6HR MAX TEMP:  67;

WAXAHACHIE     CLOUDY    65  61  86 N6        30.12S
6HR MIN TEMP:  65; 6HR MAX TEMP:  66;

CLEBURNE       CLOUDY    64  63  94 N5        30.13S
GRANBURY       MOCLDY    64  58  82 NW6       30.15R
6HR MIN TEMP:  64; 6HR MAX TEMP:  67;

$$

TXZ083>090-098>101-113>116-127>130-139>142-154-155-271300-
WESTERN NORTH TEXAS

CITY           SKY/WX    TMP DP  RH WIND       PRES   REMARKS
WICHITA FALLS  CLOUDY    56  48  74 CALM      30.16R
6HR MIN TEMP:  54; 6HR MAX TEMP:  57;

WF-KICKAPOO    CLOUDY    58  50  73 CALM      30.17S
6HR MIN TEMP:  57; 6HR MAX TEMP:  63;

VERNON         CLOUDY    55  47  74 W3        30.19R
6HR MIN TEMP:  54; 6HR MAX TEMP:  77;

ABILENE        CLOUDY    59  56  89 CALM      30.19S
6HR MIN TEMP:  58; 6HR MAX TEMP:  61; 6HR PCP:  0.01;

ABILENE-DYESS  CLOUDY    58  52  78 W5        30.18S
6HR MIN TEMP:  58; 6HR MAX TEMP:  60; 6HR PCP: TRACE;

CISCO          CLOUDY    59  54  82 NW3       30.18S
BRECKENRIDGE     N/A     61  52  72 CALM      30.17S
6HR MIN TEMP:  60; 6HR MAX TEMP:  63;

GRAHAM         CLOUDY    58  53  83 CALM      30.16R
6HR MIN TEMP:  57; 6HR MAX TEMP:  62;

MINERAL WELLS  PTCLDY    60  51  72 NW3       30.14R
6HR MIN TEMP:  60; 6HR MAX TEMP:  65;

STEPHENVILLE   CLOUDY    62  54  74 CALM      30.17S
6HR MIN TEMP:  62; 6HR MAX TEMP:  65;

COMANCHE       PTCLDY    62  55  80 N6        30.16S
6HR MIN TEMP:  62; 6HR MAX TEMP:  65;

BROWNWOOD      CLOUDY    61  55  82 NW3       30.17R
COLEMAN        CLOUDY    61  52  72 NW6       30.18S
6HR MIN TEMP:  61; 6HR MAX TEMP:  64;

$$

TXZ143>147-156>162-174-175-271300-
CENTRAL TEXAS

CITY           SKY/WX    TMP DP  RH WIND       PRES   REMARKS
WACO           CLOUDY    67  62  84 N6        30.10S
6HR MIN TEMP:  67; 6HR MAX TEMP:  67;

WACO-TSTC      CLOUDY    66  63  88 N6        30.10
WACO-MCGREGOR  CLOUDY    66  62  87 N5        30.11
6HR MIN TEMP:  66; 6HR MAX TEMP:  66;

HILLSBORO      CLOUDY    64  61  89 N3        30.11S
6HR MIN TEMP:  64; 6HR MAX TEMP:  65;

CORSICANA      CLOUDY    65  61  87 N6        30.10S
6HR MIN TEMP:  65; 6HR MAX TEMP:  67;

MEXIA          CLOUDY    65  61  87 N5        30.08F
6HR MIN TEMP:  65; 6HR MAX TEMP:  67;

HEARNE         CLOUDY    66  63  88 NW5       30.08S
6HR MIN TEMP:  65; 6HR MAX TEMP:  67;

CAMERON        CLOUDY    68  64  86 N6        30.09R
6HR MIN TEMP:  66; 6HR MAX TEMP:  68;

TEMPLE         CLOUDY    66  62  87 NW6       30.10F
6HR MIN TEMP:  66; 6HR MAX TEMP:  66;

KILLEEN        CLOUDY    65  60  84 N7        30.10S
6HR MIN TEMP:  65; 6HR MAX TEMP:  65;

KILLEEN-SKYLRK CLOUDY    66  61  84 N7        30.11S
6HR MIN TEMP:  65; 6HR MAX TEMP:  66;

FORT HOOD      CLOUDY    65  60  84 VRB6      30.08S
6HR MIN TEMP:  64; 6HR MAX TEMP:  65;

GATESVILLE     CLOUDY    66  61  82 CALM      30.14R
HAMILTON       CLOUDY    65  64  97 N7        30.14S
6HR MIN TEMP:  64; 6HR MAX TEMP:  65;

LAMPASAS       CLOUDY    65  61  85 NW3       30.12R
6HR MIN TEMP:  64; 6HR MAX TEMP:  65;

$$

TXZ095>097-106>112-122>126-135>138-148>153-164>167-271300-
EAST TEXAS

CITY           SKY/WX    TMP DP  RH WIND       PRES   REMARKS
PARIS          PTCLDY    55  52  88 N8        30.11S
6HR MIN TEMP:  55; 6HR MAX TEMP:  66;

SULPHUR SPRNGS CLOUDY    66  58  73 N6        30.13S
6HR MIN TEMP:  66; 6HR MAX TEMP:  68;

MOUNT PLEASANT CLOUDY    67  59  74 N5        30.11S
6HR MIN TEMP:  66; 6HR MAX TEMP:  67;

GILMER         CLOUDY    65  57  76 CALM      30.09S
6HR MIN TEMP:  65; 6HR MAX TEMP:  67;

MINEOLA        CLOUDY    66  61  82 CALM      30.10S
TYLER          CLOUDY    66  61  84 N6        30.09S
6HR MIN TEMP:  66; 6HR MAX TEMP:  69;

LONGVIEW       CLOUDY    66  59  78 NW3       30.08R
6HR MIN TEMP:  64; 6HR MAX TEMP:  68;

MARSHALL       CLOUDY    65  58  78 N3        30.09F
6HR MIN TEMP:  65; 6HR MAX TEMP:  65;

ATHENS         CLOUDY    63  59  88 N5        30.08S
PALESTINE      PTCLDY    64  62  96 CALM      30.08F
JACKSONVILLE   CLOUDY    64  61  89 N7        30.09F
HENDERSON      CLOUDY    65  58  80 N6        30.09S
6HR MIN TEMP:  64; 6HR MAX TEMP:  67;

CENTER         MOSUNNY   64  62  91 NW3       30.07S
6HR MIN TEMP:  64; 6HR MAX TEMP:  69;

NACOGDOCHES    CLOUDY    64  59  82 N3        30.05S
6HR MIN TEMP:  64; 6HR MAX TEMP:  68;

LUFKIN         CLOUDY    65  61  87 CALM      30.05S
6HR MIN TEMP:  65; 6HR MAX TEMP:  69;

$$

SUPPLEMENTAL OBSERVATIONS (CENTRAL)

CITY           SKY/WX    TMP DP  RH WIND       PRES   REMARKS
DENISON DAM      N/A     63  48  59 N1          N/A
ATHENS           N/A     64  61  88 CALM        N/A
LAKE LIMESTONE   N/A     66  61  82 N5          N/A
MCGREGOR         N/A     66  63  88 N3          N/A
TEMPLE           N/A     66  59  77 CALM        N/A
$C1F1C2F2C3F3C4F4C5F5C6F6C7F7C8F8C9!



USA.gov is the U.S. government's official web portal to all federal, state and local government web resources and services.